CSN6091 ZGGG-VLVT

Flight info

Callsign CSN6091
Flight time 2h 8m
Altitude 36100
Route VIBOS9 VIBOS R473 ZUH R200 BIGRO G221 SAMAS A202 ASSAD/K0854F360 A206 VIN R335 IDOTA/N0460F360 R335 ALPHA ALPHA1A
Aircraft B738/M-SDE2E3FGHIRWXY/LB1

Departure

Time 2026-05-01 09:26
Airport Guangzhou Baiyun International Airport (ZGGG)

Arrival

Time 2026-05-01 11:34
Airport Wattay International Airport (VLVT)
Time Latitude Longitude Altitude Speed Heading
2026-05-01 09:01 23.38291 113.30097 57 ft 0 kts 24°
2026-05-01 09:18 23.38285 113.30094 49 ft 3 kts 26°
2026-05-01 09:18 23.38251 113.30070 51 ft 3 kts 46°
2026-05-01 09:19 23.38232 113.30033 49 ft 3 kts 86°
2026-05-01 09:19 23.38234 113.30014 51 ft 3 kts 124°
2026-05-01 09:19 23.38241 113.30006 54 ft 0 kts 144°
2026-05-01 09:21 23.38223 113.30020 53 ft 7 kts 143°
2026-05-01 09:22 23.38169 113.30099 52 ft 7 kts 104°
2026-05-01 09:22 23.38147 113.30196 54 ft 6 kts 104°
2026-05-01 09:23 23.38137 113.30243 57 ft 6 kts 102°
2026-05-01 09:23 23.38118 113.30335 57 ft 6 kts 103°
2026-05-01 09:24 23.38098 113.30425 55 ft 8 kts 103°
2026-05-01 09:24 23.38083 113.30494 52 ft 10 kts 103°
2026-05-01 09:24 23.38049 113.30632 55 ft 9 kts 104°
2026-05-01 09:25 23.38342 113.30740 55 ft 73 kts 14°
2026-05-01 09:25 23.40175 113.31258 217 ft 180 kts 15°
2026-05-01 09:26 23.41397 113.31586 982 ft 186 kts 14°
2026-05-01 09:26 23.43935 113.32329 2337 ft 209 kts 15°
2026-05-01 09:26 23.45431 113.32778 2631 ft 236 kts 16°
2026-05-01 09:27 23.48864 113.33292 3552 ft 270 kts 340°
2026-05-01 09:27 23.50392 113.32147 4304 ft 274 kts 306°
2026-05-01 09:27 23.51180 113.30292 5215 ft 270 kts 277°
2026-05-01 09:28 23.51094 113.28300 6241 ft 262 kts 251°
2026-05-01 09:28 23.50159 113.26615 7085 ft 264 kts 224°
2026-05-01 09:28 23.48561 113.25603 7831 ft 272 kts 200°
2026-05-01 09:28 23.46694 113.25159 8625 ft 278 kts 192°
2026-05-01 09:29 23.42791 113.24655 10121 ft 287 kts 191°
2026-05-01 09:29 23.40745 113.24404 10435 ft 308 kts 191°
2026-05-01 09:30 23.36173 113.23803 10850 ft 348 kts 191°
2026-05-01 09:30 23.33743 113.23472 11366 ft 355 kts 191°
2026-05-01 09:30 23.28827 113.22789 12664 ft 361 kts 191°
2026-05-01 09:31 23.26329 113.22436 13284 ft 364 kts 191°
2026-05-01 09:31 23.23799 113.22077 13892 ft 368 kts 191°
2026-05-01 09:31 23.18686 113.21349 14998 ft 373 kts 191°
2026-05-01 09:32 23.16097 113.20981 15527 ft 377 kts 191°
2026-05-01 09:32 23.10868 113.20237 16564 ft 383 kts 191°
2026-05-01 09:32 23.08478 113.19897 17026 ft 386 kts 191°
2026-05-01 09:33 23.05801 113.19516 17541 ft 389 kts 191°
2026-05-01 09:33 23.03079 113.19339 18029 ft 396 kts 181°
2026-05-01 09:33 22.97596 113.20456 18880 ft 408 kts 166°
2026-05-01 09:34 22.94886 113.21411 19301 ft 411 kts 165°
2026-05-01 09:34 22.92165 113.22397 19709 ft 414 kts 165°
2026-05-01 09:34 22.86664 113.24368 20505 ft 419 kts 165°
2026-05-01 09:35 22.83883 113.25346 20898 ft 422 kts 165°
2026-05-01 09:35 22.78252 113.27304 21646 ft 428 kts 165°
2026-05-01 09:35 22.75408 113.28289 22015 ft 430 kts 165°
2026-05-01 09:36 22.72541 113.29281 22381 ft 433 kts 165°
2026-05-01 09:36 22.69660 113.30279 22739 ft 436 kts 165°
2026-05-01 09:36 22.66760 113.31283 23098 ft 438 kts 165°
2026-05-01 09:36 22.63850 113.32290 23434 ft 441 kts 164°
2026-05-01 09:37 22.60912 113.33306 23730 ft 443 kts 164°
2026-05-01 09:37 22.55044 113.35333 24319 ft 447 kts 164°
2026-05-01 09:37 22.52080 113.36356 24606 ft 449 kts 164°
2026-05-01 09:38 22.46107 113.38419 25163 ft 452 kts 164°
2026-05-01 09:38 22.43095 113.39458 25439 ft 454 kts 164°
2026-05-01 09:38 22.40079 113.40498 25717 ft 456 kts 164°
2026-05-01 09:39 22.34009 113.42591 26240 ft 459 kts 164°
2026-05-01 09:39 22.30948 113.43603 26493 ft 460 kts 169°
2026-05-01 09:39 22.27768 113.43864 26697 ft 458 kts 187°
2026-05-01 09:40 22.24693 113.43077 26958 ft 455 kts 204°
2026-05-01 09:40 22.19732 113.39063 27418 ft 452 kts 233°
2026-05-01 09:40 22.18127 113.36160 27612 ft 452 kts 248°
2026-05-01 09:41 22.16974 113.33002 27848 ft 453 kts 250°
2026-05-01 09:41 22.14743 113.26608 28271 ft 457 kts 249°
2026-05-01 09:41 22.13564 113.23419 28487 ft 459 kts 248°
2026-05-01 09:42 22.12293 113.20257 28692 ft 460 kts 246°
2026-05-01 09:42 22.11414 113.18167 28823 ft 462 kts 246°
2026-05-01 09:42 22.08726 113.11850 29226 ft 465 kts 246°
2026-05-01 09:43 22.06062 113.05491 29723 ft 465 kts 246°
2026-05-01 09:43 22.04738 113.02312 30025 ft 464 kts 246°
2026-05-01 09:43 22.03419 112.99132 30292 ft 463 kts 247°
2026-05-01 09:44 22.00918 112.92736 30739 ft 462 kts 248°
2026-05-01 09:44 21.99689 112.89530 31014 ft 462 kts 248°
2026-05-01 09:44 21.98636 112.86803 31253 ft 461 kts 248°
2026-05-01 09:45 21.97381 112.83581 31510 ft 460 kts 248°
2026-05-01 09:45 21.94883 112.77291 32028 ft 459 kts 248°
2026-05-01 09:45 21.93607 112.74141 32314 ft 458 kts 248°
2026-05-01 09:46 21.92325 112.70984 32576 ft 458 kts 248°
2026-05-01 09:46 21.91050 112.67837 32815 ft 457 kts 248°
2026-05-01 09:46 21.89781 112.64700 33078 ft 457 kts 248°
2026-05-01 09:46 21.88514 112.61563 33364 ft 456 kts 248°
2026-05-01 09:47 21.87262 112.58463 33633 ft 455 kts 248°
2026-05-01 09:47 21.85983 112.55302 33897 ft 455 kts 248°
2026-05-01 09:47 21.84743 112.52217 34132 ft 454 kts 248°
2026-05-01 09:47 21.83501 112.49094 34401 ft 453 kts 249°
2026-05-01 09:48 21.82274 112.45995 34693 ft 450 kts 249°
2026-05-01 09:48 21.81045 112.42888 34953 ft 449 kts 249°
2026-05-01 09:48 21.79922 112.40052 35171 ft 448 kts 249°
2026-05-01 09:48 21.78681 112.36923 35445 ft 446 kts 249°
2026-05-01 09:49 21.77541 112.34052 35688 ft 445 kts 249°
2026-05-01 09:49 21.76325 112.30995 35923 ft 444 kts 249°
2026-05-01 09:49 21.75111 112.27945 36052 ft 445 kts 249°
2026-05-01 09:49 21.73887 112.24870 36039 ft 446 kts 249°
2026-05-01 09:50 21.71451 112.18762 36049 ft 442 kts 249°
2026-05-01 09:50 21.69041 112.12727 36047 ft 440 kts 249°
2026-05-01 09:51 21.66631 112.06697 36045 ft 437 kts 249°
2026-05-01 09:51 21.64232 112.00700 36051 ft 436 kts 249°
2026-05-01 09:52 21.61846 111.94744 36052 ft 436 kts 249°
2026-05-01 09:52 21.59603 111.89149 36050 ft 437 kts 249°
2026-05-01 09:53 21.57078 111.83194 36046 ft 439 kts 242°
2026-05-01 09:53 21.53390 111.77927 36058 ft 444 kts 232°
2026-05-01 09:54 21.49332 111.72920 36050 ft 445 kts 231°
2026-05-01 09:54 21.45269 111.67887 36050 ft 446 kts 232°
2026-05-01 09:55 21.41228 111.62831 36049 ft 447 kts 232°
2026-05-01 09:55 21.37192 111.57762 36049 ft 447 kts 232°
2026-05-01 09:56 21.33149 111.52687 36050 ft 447 kts 232°
2026-05-01 09:56 21.29105 111.47616 36051 ft 447 kts 232°
2026-05-01 09:57 21.25064 111.42556 36046 ft 446 kts 232°
2026-05-01 09:57 21.21051 111.37535 36046 ft 445 kts 232°
2026-05-01 09:58 21.17018 111.32494 36046 ft 444 kts 232°
2026-05-01 09:58 21.12999 111.27474 36045 ft 444 kts 232°
2026-05-01 09:59 21.08980 111.22459 36045 ft 443 kts 232°
2026-05-01 09:59 21.04967 111.17456 36042 ft 442 kts 232°
2026-05-01 10:00 21.00955 111.12457 36040 ft 442 kts 232°
2026-05-01 10:00 20.96979 111.07508 36034 ft 441 kts 232°
2026-05-01 10:01 20.92978 111.02521 36036 ft 441 kts 232°
2026-05-01 10:01 20.88991 110.97523 36038 ft 442 kts 232°
2026-05-01 10:02 20.84978 110.92494 36036 ft 444 kts 232°
2026-05-01 10:02 20.80957 110.87461 36040 ft 446 kts 232°
2026-05-01 10:03 20.76935 110.82434 36035 ft 447 kts 232°
2026-05-01 10:03 20.72896 110.77392 36032 ft 447 kts 232°
2026-05-01 10:04 20.68860 110.72356 36032 ft 445 kts 232°
2026-05-01 10:04 20.64837 110.67341 36031 ft 444 kts 232°
2026-05-01 10:05 20.60823 110.62342 36026 ft 442 kts 232°
2026-05-01 10:05 20.56824 110.57365 36028 ft 440 kts 232°
2026-05-01 10:06 20.52867 110.52443 36026 ft 439 kts 232°
2026-05-01 10:06 20.48917 110.47492 36024 ft 437 kts 233°
2026-05-01 10:07 20.45085 110.42457 36024 ft 436 kts 233°
2026-05-01 10:07 20.41269 110.37420 36024 ft 436 kts 233°
2026-05-01 10:08 20.35513 110.29878 36024 ft 437 kts 233°
2026-05-01 10:09 20.31686 110.24878 36019 ft 438 kts 233°
2026-05-01 10:09 20.27851 110.19834 36017 ft 439 kts 234°
2026-05-01 10:10 20.24045 110.14747 36013 ft 439 kts 234°
2026-05-01 10:10 20.18328 110.07105 36015 ft 440 kts 234°
2026-05-01 10:11 20.14502 110.02007 36013 ft 440 kts 234°
2026-05-01 10:11 20.10675 109.96914 36011 ft 440 kts 234°
2026-05-01 10:12 20.07503 109.92697 36007 ft 439 kts 234°
2026-05-01 10:13 20.01151 109.84260 36006 ft 438 kts 234°
2026-05-01 10:13 19.97342 109.79206 36008 ft 437 kts 234°
2026-05-01 10:14 19.91669 109.71689 36007 ft 436 kts 234°
2026-05-01 10:14 19.87877 109.66668 36006 ft 435 kts 234°
2026-05-01 10:15 19.84092 109.61661 36006 ft 434 kts 234°
2026-05-01 10:15 19.80308 109.56659 36007 ft 434 kts 234°
2026-05-01 10:16 19.76530 109.51670 36009 ft 433 kts 234°
2026-05-01 10:17 19.70883 109.44220 36008 ft 433 kts 234°
2026-05-01 10:17 19.65215 109.36751 36012 ft 433 kts 234°
2026-05-01 10:18 19.59536 109.29277 36013 ft 433 kts 234°
2026-05-01 10:19 19.55750 109.24298 36011 ft 434 kts 234°
2026-05-01 10:19 19.51981 109.19348 36017 ft 434 kts 234°
2026-05-01 10:20 19.46245 109.11896 36017 ft 435 kts 233°
2026-05-01 10:20 19.42412 109.06935 36014 ft 435 kts 233°
2026-05-01 10:21 19.36693 108.99528 36014 ft 435 kts 233°
2026-05-01 10:22 19.30934 108.92074 36013 ft 435 kts 233°
2026-05-01 10:23 19.25164 108.84616 36011 ft 435 kts 233°
2026-05-01 10:23 19.19424 108.77212 36012 ft 436 kts 233°
2026-05-01 10:24 19.11735 108.67301 36006 ft 435 kts 233°
2026-05-01 10:25 19.04053 108.57413 36002 ft 435 kts 233°
2026-05-01 10:26 19.00216 108.52479 36004 ft 434 kts 233°
2026-05-01 10:27 18.92557 108.42646 36004 ft 434 kts 233°
2026-05-01 10:28 18.86804 108.35268 36002 ft 433 kts 233°
2026-05-01 10:28 18.81086 108.27944 36000 ft 432 kts 233°
2026-05-01 10:29 18.75343 108.20599 36002 ft 432 kts 233°
2026-05-01 10:30 18.68352 108.11667 36002 ft 431 kts 233°
2026-05-01 10:31 18.60719 108.01928 35998 ft 430 kts 232°
2026-05-01 10:32 18.55002 107.94645 35996 ft 429 kts 232°
2026-05-01 10:33 18.47384 107.84953 35997 ft 429 kts 232°
2026-05-01 10:34 18.41694 107.77720 35996 ft 429 kts 232°
2026-05-01 10:34 18.37878 107.72877 35994 ft 429 kts 232°
2026-05-01 10:35 18.35272 107.67361 36002 ft 423 kts 259°
2026-05-01 10:35 18.34997 107.64286 35989 ft 423 kts 272°
2026-05-01 10:35 18.36007 107.58170 35995 ft 425 kts 281°
2026-05-01 10:36 18.37941 107.49076 35994 ft 426 kts 281°
2026-05-01 10:37 18.39184 107.42963 35994 ft 427 kts 280°
2026-05-01 10:37 18.41008 107.33764 35998 ft 428 kts 280°
2026-05-01 10:38 18.42222 107.27614 36000 ft 429 kts 280°
2026-05-01 10:38 18.43430 107.21488 35998 ft 430 kts 280°
2026-05-01 10:39 18.44646 107.15315 35997 ft 430 kts 280°
2026-05-01 10:39 18.45860 107.09145 35999 ft 430 kts 280°
2026-05-01 10:40 18.47032 107.03170 36000 ft 430 kts 280°
2026-05-01 10:40 18.48220 106.97101 35998 ft 430 kts 280°
2026-05-01 10:41 18.49418 106.90963 35999 ft 430 kts 280°
2026-05-01 10:42 18.51219 106.81720 35999 ft 428 kts 280°
2026-05-01 10:42 18.52414 106.75568 35999 ft 429 kts 280°
2026-05-01 10:43 18.53610 106.69402 35998 ft 429 kts 280°
2026-05-01 10:43 18.54802 106.63249 35996 ft 429 kts 280°
2026-05-01 10:44 18.55993 106.57099 35996 ft 428 kts 280°
2026-05-01 10:44 18.57198 106.50956 35996 ft 427 kts 280°
2026-05-01 10:45 18.58399 106.44836 35992 ft 425 kts 280°
2026-05-01 10:45 18.59585 106.38776 35993 ft 424 kts 280°
2026-05-01 10:46 18.60772 106.32689 35992 ft 423 kts 280°
2026-05-01 10:46 18.61957 106.26607 35997 ft 423 kts 280°
2026-05-01 10:47 18.63138 106.20531 35995 ft 423 kts 280°
2026-05-01 10:47 18.64319 106.14446 35998 ft 423 kts 280°
2026-05-01 10:48 18.65492 106.08388 35997 ft 424 kts 280°
2026-05-01 10:48 18.66661 106.02290 35998 ft 425 kts 280°
2026-05-01 10:49 18.67829 105.96177 35997 ft 425 kts 280°
2026-05-01 10:49 18.68999 105.90050 35997 ft 426 kts 280°
2026-05-01 10:50 18.70169 105.83911 35996 ft 426 kts 280°
2026-05-01 10:50 18.71335 105.77782 35995 ft 426 kts 280°
2026-05-01 10:51 18.72500 105.71648 35991 ft 427 kts 280°
2026-05-01 10:51 18.73319 105.65504 35986 ft 425 kts 270°
2026-05-01 10:52 18.72907 105.59254 35993 ft 424 kts 265°
2026-05-01 10:52 18.72386 105.53095 35993 ft 424 kts 265°
2026-05-01 10:53 18.71889 105.46881 35992 ft 424 kts 265°
2026-05-01 10:53 18.71409 105.40677 35991 ft 424 kts 265°
2026-05-01 10:54 18.70932 105.34473 35991 ft 424 kts 265°
2026-05-01 10:54 18.70454 105.28308 35993 ft 424 kts 265°
2026-05-01 10:55 18.69972 105.22108 35999 ft 423 kts 265°
2026-05-01 10:55 18.69487 105.15911 35991 ft 423 kts 265°
2026-05-01 10:56 18.69003 105.09729 36007 ft 423 kts 265°
2026-05-01 10:56 18.68517 105.03538 36010 ft 423 kts 265°
2026-05-01 10:57 18.68034 104.97394 36004 ft 422 kts 265°
2026-05-01 10:57 18.67547 104.91223 36012 ft 422 kts 265°
2026-05-01 10:58 18.67057 104.85051 36013 ft 422 kts 265°
2026-05-01 10:58 18.66564 104.78870 36009 ft 422 kts 265°
2026-05-01 10:59 18.66070 104.72692 36002 ft 422 kts 265°
2026-05-01 10:59 18.65578 104.66565 36008 ft 422 kts 265°
2026-05-01 11:00 18.65079 104.60395 36008 ft 422 kts 265°
2026-05-01 11:00 18.64580 104.54224 36006 ft 421 kts 265°
2026-05-01 11:01 18.64080 104.48079 36002 ft 421 kts 265°
2026-05-01 11:01 18.63578 104.41937 35997 ft 420 kts 265°
2026-05-01 11:02 18.63085 104.35928 35977 ft 397 kts 265°
2026-05-01 11:02 18.62851 104.33083 35982 ft 383 kts 265°
2026-05-01 11:02 18.62625 104.30337 35967 ft 370 kts 265°
2026-05-01 11:02 18.62409 104.27720 35979 ft 356 kts 265°
2026-05-01 11:03 18.62197 104.25158 35967 ft 348 kts 265°
2026-05-01 11:03 18.61771 104.20009 35999 ft 358 kts 265°
2026-05-01 11:04 18.61328 104.14685 35994 ft 370 kts 265°
2026-05-01 11:04 18.60876 104.09256 35976 ft 375 kts 265°
2026-05-01 11:05 18.60420 104.03812 35958 ft 368 kts 265°
2026-05-01 11:05 18.59971 103.98472 35959 ft 365 kts 265°
2026-05-01 11:06 18.59522 103.93141 35954 ft 365 kts 265°
2026-05-01 11:06 18.59070 103.87795 35960 ft 366 kts 265°
2026-05-01 11:07 18.58389 103.79784 35951 ft 368 kts 265°
2026-05-01 11:07 18.57930 103.74405 35953 ft 369 kts 265°
2026-05-01 11:08 18.57469 103.69015 35951 ft 370 kts 265°
2026-05-01 11:09 18.56772 103.60904 35951 ft 370 kts 265°
2026-05-01 11:09 18.56307 103.55518 35939 ft 370 kts 265°
2026-05-01 11:10 18.55607 103.47438 35959 ft 369 kts 265°
2026-05-01 11:10 18.55138 103.42046 35959 ft 369 kts 265°
2026-05-01 11:11 18.54668 103.36657 35953 ft 369 kts 265°
2026-05-01 11:11 18.54147 103.31281 35962 ft 368 kts 262°
2026-05-01 11:12 18.53282 103.25960 35952 ft 368 kts 260°
2026-05-01 11:12 18.52360 103.20686 35959 ft 368 kts 260°
2026-05-01 11:13 18.51456 103.15369 35959 ft 367 kts 261°
2026-05-01 11:13 18.50572 103.10069 35952 ft 367 kts 261°
2026-05-01 11:14 18.49691 103.04769 35951 ft 367 kts 261°
2026-05-01 11:14 18.49242 103.02079 35270 ft 378 kts 260°
2026-05-01 11:14 18.48769 102.99351 34743 ft 379 kts 260°
2026-05-01 11:15 18.48288 102.96612 34170 ft 382 kts 260°
2026-05-01 11:15 18.47804 102.93885 33532 ft 386 kts 260°
2026-05-01 11:15 18.47308 102.91092 32856 ft 389 kts 260°
2026-05-01 11:15 18.46806 102.88279 32194 ft 391 kts 260°
2026-05-01 11:16 18.46302 102.85459 31540 ft 394 kts 259°
2026-05-01 11:16 18.45793 102.82611 30905 ft 396 kts 260°
2026-05-01 11:16 18.45282 102.79753 30287 ft 399 kts 260°
2026-05-01 11:16 18.44941 102.77847 29881 ft 400 kts 260°
2026-05-01 11:17 18.44255 102.74022 28933 ft 402 kts 260°
2026-05-01 11:17 18.43736 102.71128 28251 ft 403 kts 259°
2026-05-01 11:17 18.43214 102.68224 27566 ft 403 kts 259°
2026-05-01 11:17 18.42693 102.65325 26919 ft 403 kts 259°
2026-05-01 11:18 18.42343 102.63364 26470 ft 404 kts 259°
2026-05-01 11:18 18.41826 102.60457 25833 ft 404 kts 259°
2026-05-01 11:18 18.41311 102.57548 25206 ft 403 kts 259°
2026-05-01 11:18 18.40805 102.54679 24603 ft 403 kts 259°
2026-05-01 11:19 18.40297 102.51781 24008 ft 402 kts 259°
2026-05-01 11:19 18.39792 102.48884 23424 ft 401 kts 259°
2026-05-01 11:19 18.39290 102.45995 22734 ft 400 kts 259°
2026-05-01 11:19 18.38793 102.43113 22048 ft 399 kts 259°
2026-05-01 11:20 18.38302 102.40245 21386 ft 398 kts 259°
2026-05-01 11:20 18.37815 102.37374 20734 ft 397 kts 259°
2026-05-01 11:20 18.37332 102.34512 20096 ft 395 kts 259°
2026-05-01 11:20 18.36856 102.31671 19476 ft 394 kts 259°
2026-05-01 11:21 18.36386 102.28837 18866 ft 392 kts 259°
2026-05-01 11:21 18.35921 102.26011 18267 ft 391 kts 259°
2026-05-01 11:21 18.35462 102.23193 17605 ft 390 kts 259°
2026-05-01 11:21 18.35009 102.20388 16935 ft 388 kts 260°
2026-05-01 11:22 18.34560 102.17595 16268 ft 386 kts 259°
2026-05-01 11:22 18.34122 102.14848 15633 ft 385 kts 260°
2026-05-01 11:22 18.33661 102.12106 14982 ft 374 kts 257°
2026-05-01 11:22 18.32948 102.09513 14356 ft 363 kts 249°
2026-05-01 11:23 18.31935 102.07122 13740 ft 354 kts 241°
2026-05-01 11:23 18.30642 102.04953 13064 ft 346 kts 233°
2026-05-01 11:23 18.29102 102.03047 12396 ft 339 kts 226°
2026-05-01 11:23 18.27342 102.01426 11743 ft 334 kts 218°
2026-05-01 11:24 18.25301 102.00340 11314 ft 325 kts 193°
2026-05-01 11:24 18.23111 102.00398 11218 ft 310 kts 169°
2026-05-01 11:24 18.19780 102.02920 11008 ft 298 kts 126°
2026-05-01 11:25 18.18920 102.04898 10712 ft 299 kts 105°
2026-05-01 11:25 18.18361 102.09220 10169 ft 297 kts 97°
2026-05-01 11:25 18.18161 102.11359 9886 ft 296 kts 97°
2026-05-01 11:26 18.17957 102.13511 9592 ft 296 kts 97°
2026-05-01 11:26 18.17568 102.17438 9058 ft 292 kts 97°
2026-05-01 11:26 18.17351 102.19558 8766 ft 291 kts 97°
2026-05-01 11:27 18.17133 102.21666 8499 ft 289 kts 98°
2026-05-01 11:27 18.16914 102.23758 8233 ft 287 kts 97°
2026-05-01 11:27 18.16695 102.25847 7933 ft 286 kts 97°
2026-05-01 11:27 18.16476 102.27921 7659 ft 285 kts 97°
2026-05-01 11:28 18.16260 102.29973 7371 ft 281 kts 97°
2026-05-01 11:28 18.16043 102.32018 6974 ft 280 kts 97°
2026-05-01 11:28 18.15835 102.33993 6887 ft 262 kts 97°
2026-05-01 11:29 18.15442 102.37693 6038 ft 250 kts 97°
2026-05-01 11:29 18.14971 102.39413 5524 ft 244 kts 123°
2026-05-01 11:29 18.12757 102.41957 4587 ft 231 kts 137°
2026-05-01 11:30 18.11615 102.43106 4083 ft 222 kts 136°
2026-05-01 11:30 18.10542 102.44198 3609 ft 214 kts 136°
2026-05-01 11:30 18.09479 102.45290 3130 ft 208 kts 135°
2026-05-01 11:30 18.08465 102.46336 2768 ft 197 kts 135°
2026-05-01 11:31 18.07547 102.47287 2628 ft 178 kts 135°
2026-05-01 11:31 18.06706 102.48157 2476 ft 163 kts 135°
2026-05-01 11:31 18.05921 102.48972 2284 ft 155 kts 135°
2026-05-01 11:31 18.05159 102.49761 2079 ft 154 kts 136°
2026-05-01 11:32 18.04410 102.50539 1871 ft 149 kts 135°
2026-05-01 11:32 18.03679 102.51296 1682 ft 148 kts 135°
2026-05-01 11:32 18.02952 102.52051 1494 ft 146 kts 135°
2026-05-01 11:32 18.02200 102.52794 1331 ft 149 kts 137°
2026-05-01 11:33 18.01456 102.53562 1129 ft 151 kts 133°
2026-05-01 11:33 18.00741 102.54359 930 ft 149 kts 133°
2026-05-01 11:33 18.00008 102.55120 695 ft 149 kts 135°
2026-05-01 11:33 17.99267 102.55864 563 ft 146 kts 135°
2026-05-01 11:34 17.98606 102.56562 560 ft 107 kts 135°
2026-05-01 11:34 17.98273 102.56879 567 ft 29 kts 169°
2026-05-01 11:34 17.98144 102.56905 561 ft 8 kts 167°
2026-05-01 11:34 17.98090 102.56919 564 ft 8 kts 167°
2026-05-01 11:35 17.98037 102.56931 567 ft 8 kts 167°
2026-05-01 11:35 17.97986 102.56944 567 ft 7 kts 164°
2026-05-01 11:35 17.97894 102.56972 567 ft 20 kts 164°
2026-05-01 11:35 17.97762 102.56957 563 ft 20 kts 216°
2026-05-01 11:36 17.97683 102.56933 570 ft 8 kts 204°
2026-05-01 11:36 17.97642 102.56892 566 ft 6 kts 225°
2026-05-01 11:36 17.97636 102.56885 564 ft 0 kts 226°
2026-05-01 11:36 17.97634 102.56883 564 ft 0 kts 226°
2026-05-01 11:37 17.97632 102.56881 569 ft 0 kts 226°